Simultaneous Nadir Overpasses (SNOs) Predictions

Prediction of SNOs between LANDSAT-8 and NOAA-19 Satellite Orbit:

Table of predicted SNOs for the next 14.0 days since TLE Epoch: 7/12/2014
Index Date (LANDSAT-8) Time (LANDSAT-8) Lat,Lon (LANDSAT-8) SZA (LANDSAT-8 ) Date (NOAA-19) Time (NOAA-19) Lat,Lon (NOAA-19) SZA (NOAA-19 ) Distance(km) Time Diff (sec)
1 07/13/2014 23:01:48 -72.07, 13.97 129.74 07/13/2014 23:00:48 -72.06, 14.05 129.75 3.06 60
2 07/13/2014 23:51:15 71.98,-178.55 50.17 07/13/2014 23:51:47 72.00,-178.58 50.20 2.53 32
3 07/16/2014 03:45:58 -72.49, -56.35 128.99 07/16/2014 03:44:48 -72.59, -57.96 128.86 55.03 70
4 07/16/2014 04:35:32 72.02, 110.45 50.56 07/16/2014 04:35:36 72.00, 110.48 50.55 1.94 4
5 07/18/2014 09:19:49 72.05, 39.43 50.96 07/18/2014 09:19:26 72.06, 39.44 50.98 1.66 23
6 07/18/2014 10:09:19 -71.94,-153.13 129.14 07/18/2014 10:10:28 -71.94,-153.10 129.14 1.17 69
7 07/20/2014 14:04:06 72.07, -31.61 51.38 07/20/2014 14:03:15 72.07, -31.51 51.39 3.38 51
8 07/20/2014 14:53:35 -71.96, 135.84 128.72 07/20/2014 14:54:17 -71.98, 135.90 128.70 3.31 42
9 07/22/2014 18:48:19 72.23,-102.38 51.97 07/22/2014 18:47:07 72.29,-102.87 52.04 17.62 72
10 07/22/2014 19:37:51 -72.02, 64.87 128.23 07/22/2014 19:38:07 -72.02, 64.89 128.23 0.69 16
11 07/25/2014 00:22:07 -72.07, -6.11 127.73 07/25/2014 00:21:57 -72.07, -6.13 127.73 0.55 10
